Flag for U.S.A. Weather past 2 weeks in Rochester, New York, U.S.A.

Now
65 °F

Fog.


Feels Like: 65 °F
Forecast: 64 / 73 °F
Wind: No wind

Location: Greater Rochester International Airport

Current Time: Aug 22, 2014 at 7:58:26 AM

Latest Report: Aug 22, 2014 at 6:54 AM


Visibility: 4 mi

Pressure: 29.98 "Hg

Humidity: 94%

Dew point: 63 °F

Location of RochesterLocation

Historic Weather in Rochester — Graph

°F

Rochester temperature yesterday

Maximum temperature yesterday: 80 °F (at 11:54 AM)
Minimum temperature yesterday: 65 °F (at 3:54 AM)
Average temperature yesterday: 72 °F

Past Weeks' High & Low Weather Summary

 TemperatureHumidityPressure
High83 °F (Aug 11, 1:54 PM)97% (Aug 21, 3:54 AM)30.19 "Hg (Aug 21, 3:54 AM)
Low52 °F (Aug 16, 4:54 AM)36% (Aug 11, 2:54 PM)29.71 "Hg (Aug 13, 3:54 AM)
Average67 °F73%29.96 "Hg
* Reported Aug 7 5:54 AM — Aug 22 5:54 AM, Rochester, Weather by CustomWeather, © 2014

Note: Actual official high and low records may vary slightly from our data, if they occured in-between our weather recording intervals... More about our weather records

Advertising

Rochester weather history for previous 24 hours

 ConditionsComfort  
Time TempWeatherWind HumidityBarometerVisibility
5:54 AM
Aug 22
65 °FFog.3 mph94%29.97 "Hg6 mi
4:54 AM64 °FFog.No wind97%29.96 "Hg5 mi
3:54 AM65 °FFog.No wind97%29.98 "Hg2 mi
2:54 AM67 °FFog.5 mph93%29.96 "Hg4 mi
1:54 AM69 °FOvercast.3 mph93%29.97 "Hg7 mi
12:54 AM69 °FPassing clouds.No wind90%29.97 "Hg9 mi
11:54 PM
Aug 21
69 °FOvercast.No wind90%29.97 "Hg9 mi
10:54 PM70 °FPartly cloudy.No wind87%29.97 "Hg9 mi
9:54 PM70 °FPassing clouds.3 mph84%29.96 "Hg10 mi
8:54 PM72 °FPartly sunny.No wind81%29.96 "Hg10 mi
7:54 PM74 °FPartly sunny.No wind71%29.96 "Hg10 mi
6:54 PM75 °FPartly sunny.7 mph74%29.96 "Hg10 mi
5:54 PM75 °FBroken clouds.7 mph79%29.95 "Hg9 mi
4:54 PM77 °FBroken clouds.6 mph74%29.94 "Hg10 mi
3:54 PM76 °FCloudy.8 mph77%29.94 "Hg10 mi
2:54 PM79 °FPartly sunny.6 mph69%29.94 "Hg10 mi
1:54 PM77 °FBroken clouds.9 mph74%29.94 "Hg10 mi
12:54 PM80 °FOvercast.9 mph58%29.96 "Hg10 mi
11:54 AM80 °FPartly sunny.8 mph64%29.95 "Hg10 mi
10:54 AM77 °FPartly sunny.12 mph69%29.96 "Hg10 mi
9:54 AM75 °FPartly sunny.8 mph76%29.96 "Hg10 mi
8:54 AM72 °FScattered clouds.7 mph84%29.96 "Hg10 mi
7:54 AM67 °FScattered clouds.3 mph90%29.98 "Hg8 mi
Weather by CustomWeather, © 2014

See weather overviewHow to use our weather pages